Weather in Wadebridge

United Kingdom     50°31′07″N   4°49′51″W
temp.,
°C
wind,
m/s
gust,
m/s
humid.,
%
clouds,
%
prec.,
mm/h
press.,
hPa
HPBL,
m
18 may, tue
tue1801:00+8w499664 0.2 1014274
04:00+6wsw389824 0.1 1014183
07:00+8ssw289664 0.1 1014343
10:00+12wsw688018 0.6 1014957
13:00+13wsw7868100 1.2 10141250
16:00+12wsw8870100 0.2 10151238
19:00+10wsw488495 0.8 1016694
22:00+9wsw488952 0.1 1017281
19 may, wed
wed1901:00+7w410965 0.3 1017250
04:00+7nw38924 0.4 1017141
07:00+8nw48931 0.4 1019476
10:00+11wnw67722 0.0 1021952
13:00+13w67655 0.1 10221240
16:00+13w676735 0.0 10221014
19:00+11w578095 0.0 1023722
22:00+8sw2697100 0.0 1023134
20 may, thu
thu2001:00+8ssw2398100 0.0 102271
04:00+8s3897100 0.0 1021270
07:00+8sse61395100 0.9 1018715
10:00+9sse111896100 2.1 1015968
13:00+10ssw111896100 2.4 1013997
16:00+12sw101686100 0.3 10111354
19:00+11sw101586100 0.7 10101253
22:00+10sw101787100 0.3 10091161
21 may, fri
fri2101:00+9sw10178638 0.4 10071104
04:00+9sw10178444 0.1 10051264
07:00+9sw10188324 0.3 10031377
10:00+11wsw131986100 0.8 10011532
13:00+12wsw12188682 1.8 10001498
16:00+12wsw11158863 1.3 9991301
19:00+10wsw9149195 2.1 9981036
22:00+9wnw8139386 0.4 999701
22 may, sat
sat2201:00+8nw9149265 0.8 1000801
04:00+7nw81384100 0.1 1002811
07:00+8nw9127381 0.3 10041013
10:00+9wnw8106569 0.3 10061742
13:00+10wnw9116413 0.5 10081718
16:00+10wnw9116255 0.2 10101735
19:00+9w8117628 0.6 10101086
22:00+7wnw6128094 0.3 1012442